Torna al catalogo

DRAGON FREEDOM 3

AttivoScienzaVLEO
NORAD 67796·PAYLOAD·🇺🇸 United States

Lanciato Feb 13, 2026 da Cape Canaveral Space Force Station

Loading…

Prossimi Passaggi (prossime 24 ore)

TLE

AggiornatoSource: Space-Track

Epoca: Sep 14, 2026, 08:04 UTC

1 67796U 26031A   26257.33674855  .00005039  00000-0  99198-4 0  9997
2 67796  51.6309 218.8706 0004930 140.1239 220.0112 15.49109872586541

Traccia DRAGON FREEDOM 3 in tempo reale con AllMySat

Download on the App Store